Location: Carbonear
(47.7333°N, 53.2500°W)
Time: 12:10:32
(UTC+00:00)

M-CUBED/EXP-1 PRIME - Visible Passes

Search period start: 08 December 2022 00:00
Search period end: 18 December 2022 00:00
Orbit: 418 x 615 km, 101.7° (Epoch: 08 December)

Date Brightness Start Highest point End Pass type
(mag) Time Alt. Az. Time Alt. Az. Time Alt. Az.
08 Dec ? 09:11:08 10° E 09:14:04 19° NE 09:17:05 10° N visible
09 Dec ? 08:57:39 10° E 08:59:51 14° NE 09:02:05 10° NNE visible
09 Dec ? 10:28:38 10° SSE 10:32:50 88° W 10:37:09 10° NNW visible
10 Dec ? 08:45:01 10° ENE 08:45:39 10° NE 08:46:17 10° NE visible
10 Dec ? 10:14:15 10° SSE 10:18:24 64° ENE 10:22:40 10° NNW visible
11 Dec ? 09:59:58 10° SE 10:03:59 44° ENE 10:08:05 10° N visible
12 Dec ? 09:45:49 10° ESE 09:49:33 31° ENE 09:53:22 10° N visible
13 Dec ? 09:31:48 10° ESE 09:35:08 23° ENE 09:38:31 10° N visible
14 Dec ? 09:17:58 10° E 09:20:43 17° NE 09:23:29 10° NNE visible
15 Dec ? 09:04:30 10° ENE 09:06:18 12° NE 09:08:06 10° NNE visible
15 Dec ? 10:34:56 10° SSE 10:39:11 80° ENE 10:43:31 10° NNW visible
16 Dec ? 10:20:24 10° SE 10:24:34 54° ENE 10:28:47 10° N visible
17 Dec ? 10:05:59 10° SE 10:09:56 38° ENE 10:13:55 10° N visible
